Погода в Амфисе

Греция     38°31′42″N   22°22′49″E
темп.,
°C
ветер,
м/с
пор.,
м/с
влажн.,
%
обл.,
%
осадки,
мм/ч
давл.,
гПа
погр.,
м
27 октября, ср
ср2700:00+7ссв338113 0.0 1024110
03:00+6ссв338410 0.0 102385
06:00+7ссв338327 0.0 1023100
09:00+8св347920 0.0 1024274
12:00+11св336238 0.0 1024755
15:00+13св335642 0.0 1022876
18:00+11св336536 0.0 1022561
21:00+8ссв338387 0.0 1025116
28 октября, чт
чт2800:00+7ссв338567 0.0 102596
03:00+6ссв448529 0.0 102585
06:00+6ссв438615 0.0 102579
09:00+7ссв34822 0.0 1025156
12:00+12св346219 0.0 1024842
15:00+13св34582 0.0 1022854
18:00+10св346914 0.0 1023622
21:00+8ссв34871 0.0 1025117
29 октября, пт
пт2900:00+7ссв33870 0.0 102588
03:00+6ссв33860 0.0 102571
06:00+6ссв33870 0.0 102471
09:00+7ссв33840 0.0 1024143
12:00+12св33600 0.0 1023702
15:00+13св33550 0.0 1021900
18:00+11св33661 0.0 1022551
21:00+8ссв33830 0.0 102386
30 октября, сб
сб3000:00+7ссв33860 0.0 102471
03:00+6ссв33840 0.0 102362
06:00+6ссв33820 0.0 102359
09:00+7ссв33793 0.0 1024111
12:00+13св33520 0.0 1023800
15:00+14св23480 0.0 10221031
18:00+12св22600 0.0 1023208
21:00+8ссв33800 0.0 102564
31 октября, вс
вс3100:00+7ссв33880 0.0 102566
03:00+7ссв32860 0.0 102546
05:00+6ссв32840 0.0 102537
08:00+7ссв22800 0.0 102481
11:00+13всв22510 0.0 1023733
14:00+15юв11460 0.0 1021929
17:00+12юв11630 0.0 102142
20:00+10юв01720 0.0 102210